Starlink 32335

operational
NORAD ID: 61703 Int'l Des: 2024-195 Owner: SPXS Country: US Constellation: starlink
LEOCIRCULAR

关于 Starlink 32335

正在加载描述...

实时位置

正在加载3D地球...

即将过境

高度历史

Altitude vs Time

uPlot chart will show altitude changes over time

两行轨道根数

1 61703U 24195S 25351.84155649 -.00000946 00000-0 -19826-4 0 9997
2 61703 53.1599 175.2864 0001215 79.7279 280.3859 15.30188049 64727
Epoch: Dec 17, 2025 • Age: 12 hours

当前状态

高度 494.3 km
速度 7.62 km/s
星下点 -52.33°S, 144.03°W
发射日期 Oct 30, 2024
运行时间 1.1 years
类型 internet

技术详情

分类 Payload
质量 730.00 kg
干质量 700.00 kg
总质量 730.00 kg
长度 0.30 m
直径 4.10 m
跨度 29.00 m
形状 Box + pan
制造商 SPXS
平台类型 Starlink V2M
阶段状态 In Orbit
所有者/国家 SPXS/US

大型星座

Loading constellations...